Regional Weather Roundup
Issued by NWS Charleston, SC

Current Version | Previous Version | Text Only | Print | Product List | Glossary Off
Versions: 1 2 3 4 5 6 7 8 9 10 11 12 13 14 15 16 17 18 19 20 21 22 23 24 25 26 27 28 29 30 31 32 33 34 35 36 37 38 39 40 41 42 43 44 45 46 47 48 49 50

000
ASUS42 KCHS 260613
RWRCHS

REGIONAL WEATHER ROUNDUP
NATIONAL WEATHER SERVICE CHARLESTON SC
200 AM EDT THU MAY 26 2016

NOTE: "FAIR" INDICATES FEW OR NO CLOUDS BELOW 12,000 FEET WITH NO
SIGNIFICANT WEATHER AND/OR OBSTRUCTIONS TO VISIBILITY.

NOT ALL STATIONS ARE QUALITY CONTROLLED. USE DATA WITH CAUTION...
ESPECIALLY DEWPOINT OBSERVATIONS.

SCZ027-030-031-034>040-042>050-260700-
...SOUTHEAST SOUTH CAROLINA...

CITY           SKY/WX    TMP DP  RH WIND       PRES   REMARKS
N CHARLESTON   CLEAR     70  66  87 S3        30.19F
6HR MIN TEMP:  69; 6HR MAX TEMP:  78;

WATERFRONT PRK   N/A     75  70  84 VRB2      30.17F
MOUNT PLEASANT FAIR      70  66  88 CALM      30.19F
JOHNS ISLAND   FAIR      73  70  88 S6        30.19F
PINOPOLIS        N/A     73  66  78 VRB3      30.12F
MONCKS CORNER  FAIR      63  59  88 CALM      30.19S
SUMMERVILLE    FAIR      66  66 100 CALM      30.20F
BEAUFORT MCAS  CLEAR     74  67  78 S5        30.19S
6HR MIN TEMP:  74; 6HR MAX TEMP:  79;

BEAUFORT ARPT  FAIR      72  66  83 S5        30.19S
HILTON HEAD IS CLEAR     73  70  88 S8        30.19F
WALTERBORO     CLEAR     70  70 100 CALM      30.20S
ALLENDALE      FAIR      70  63  78 CALM      30.18S

...SOUTHERN MIDLANDS AND PEE DEE...

CITY           SKY/WX    TMP DP  RH WIND       PRES   REMARKS
GEORGETOWN     FAIR      64  63  94 CALM      30.20F
KINGSTREE      FAIR      64  61  88 CALM      30.18F
ORANGEBURG     CLEAR     66  62  87 CALM      30.19S
6HR MIN TEMP:  66; 6HR MAX TEMP:  82;

BARNWELL       FAIR      72  64  78 CALM      30.19S
AIKEN          FAIR      68  59  73 S7        30.21F
MANNING        FAIR      70  66  88 S3        30.18F
COLUMBIA       CLEAR     72  59  63 SW7       30.16S
6HR MIN TEMP:  69; 6HR MAX TEMP:  85;

SUMTER         CLEAR     68  61  77 SW1       30.16S
6HR MIN TEMP:  67; 6HR MAX TEMP:  81;

FLORENCE       PTCLDY    69  61  75 S6        30.18F
6HR MIN TEMP:  69; 6HR MAX TEMP:  83;

MYRTLE BEACH   MOCLDY    73  63  68 SW6       30.21F
N MYRTLE BEACH MOCLDY    74  69  85 S9        30.18F
6HR MIN TEMP:  73; 6HR MAX TEMP:  75;


$$

GAZ063-065-086>088-099>101-113>116-118-119-134>141-150-260700-
...SOUTHEAST GEORGIA...

CITY           SKY/WX    TMP DP  RH WIND       PRES   REMARKS
SAVANNAH ARPT  CLEAR     70  65  84 S3        30.19F
6HR MIN TEMP:  70; 6HR MAX TEMP:  79;

HUNTER AAF     CLEAR     73  70  89 S5        30.16F
6HR MIN TEMP:  73; 6HR MAX TEMP:  78;

FORT STEWART   CLEAR     66  63  88 CALM      30.17S
6HR MIN TEMP:  66; 6HR MAX TEMP:  80;

STATESBORO     PTCLDY    70  65  85 S3        30.19F
SYLVANIA       PTCLDY    70  65  83 CALM      30.19F
CLAXTON        FAIR      65  64  95 CALM      30.19S

...CSRA...CENTRAL AND FAR SOUTHEAST GEORGIA...

CITY           SKY/WX    TMP DP  RH WIND       PRES   REMARKS
THOMSON        CLEAR     66  65  96 CALM      30.21S
AUGUSTA-BUSH   CLEAR     65  62  90 SE3       30.16F
6HR MIN TEMP:  64; 6HR MAX TEMP:  79;

AUGUSTA-DANIEL CLEAR     74  60  61 S7        30.18F
SWAINSBORO     FAIR      70  61  73 S5        30.19S
VIDALIA        PTCLDY    70  61  73 S5        30.18F
EASTMAN        FAIR      66  63  87 S3        30.20S
HAZLEHURST     FAIR      71  61  70 CALM      30.17F
ALMA           CLEAR     67  61  81 SE3       30.18F
6HR MIN TEMP:  67; 6HR MAX TEMP:  83;

WAYCROSS       CLEAR     69  63  81 S3        30.18F
JESUP          FAIR      61  59  94 CALM      30.19F
BAXLEY         FAIR      70  63  78 CALM      30.18F
BRUNSWICK      CLEAR     72  66  83 CALM      30.19F
SAINT SIMONS   CLEAR     75  67  76 SE9       30.18F
6HR MIN TEMP:  75; 6HR MAX TEMP:  77;


$$

SCZ027-028-034-036>038-045-046-048>050-GAZ119-141-260700-
...LAKE AND SUPPLEMENTAL COASTAL OBSERVATIONS...

STATION/POSITION TIME  TEMP    WIND        PRES    WAVE   SWELL
                       AIR SEA DIR/SP/G            HT/PER HT/PER/DIR
                 (UTC) (F)     (DEG/KT/KT) (MB)    (FT/S) (FT/S/D)
WINYAH BAY       NOT AVBL
LAKE MURRAY      0500   76     210/  9/ 11 1021.0F
ACE BASIN NERRS  NOT AVBL
FORT PULASKI     0500   75 77  150/  5/  9 1022.8F
SAPELO ISLAND    0500   75     140/  5     1022.0F

$$

ANZ835-935-AMZ111-154-330-350-352-354-370-450-454-472-260700-
...C-MAN AND BUOY OBSERVATIONS...

STATION/POSITION TIME  TEMP    WIND        PRES    WAVE   SWELL
                       AIR SEA DIR/SP/G            HT/PER HT/PER/DIR
                 (UTC) (F)     (DEG/KT/KT) (MB)    (FT/S) (FT/S/D)
BUOY 41004       0550   77 76  190/  8/ 10 1022.4F   2/ 9   2/ 9
BUOY 41008       0550   77 77  150/ 10/ 12 1022.2F   2/10   2/100/10
FOLLY BEACH CMAN 0600   75     190/ 11/ 13 1022.4F
CAPERS NEARSHORE 0508   76 75  200/ 10/ 12 1022.7F
FRIPP NEARSHORE  0508   76 76  190/ 10/ 12 1022.0F


STATION/POSITION TIME  TEMP    WIND        PRES    WAVE   SWELL
                       AIR SEA DIR/SP/G            HT/PER HT/PER/DIR
                 (UTC) (F)     (DEG/KT/KT) (MB)    (FT/S) (FT/S/D)
5E ST. MARYS GA  0521      78                N/A     2/ 9
FRYING PAN BUOY  0500   77 76  210/ 12/ 14 1023.0R
BUOY 41025       0550   71 69  240/  6/  6 1022.9R   2/ 9   2/140/ 9
CAPE LOOKOUT NC  0600   71     210/  5/  6 1022.6F
BUOY 41002       0550   75 78   80/ 12/ 16 1023.1F   2/ 8   2/ 70/ 8
BUOY 41010       0520   76 78   70/ 12/ 14 1021.7F
ST AUGUSTINE FL  0600   77 80  110/  9/ 10 1023.0F


$$




USA.gov is the U.S. government's official web portal to all federal, state and local government web resources and services.